This is the latest recevied weather packets stored in our database for station/object 9M2ABD-1. If no packets are shown the sender has not sent any weather packets the latest 10 day(s).
| Time | Temp. | Humidity | Pressure | Rain* | Wind** | Luminosity | Snow |
|---|---|---|---|---|---|---|---|
| 1777442366 | 33.33° C | 60% | 1008.2 hPa | - | - | - | - |
| 1777441166 | 33.33° C | 58% | 1008.8 hPa | - | - | - | - |
| 1777439966 | 33.33° C | 57% | 1009 hPa | - | - | - | - |
| 1777438765 | 32.78° C | 63% | 1009.4 hPa | - | - | - | - |
| 1777437565 | 32.22° C | 65% | 1009.9 hPa | - | - | - | - |
| 1777436365 | 31.67° C | 69% | 1010.1 hPa | - | - | - | - |
| 1777435165 | 31.67° C | 71% | 1010.4 hPa | - | - | - | - |
| 1777433965 | 31.67° C | 72% | 1010.4 hPa | - | - | - | - |
| 1777432765 | 31.11° C | 73% | 1010.7 hPa | - | - | - | - |
| 1777430365 | 30.56° C | 77% | 1011.1 hPa | - | - | - | - |
| 1777429165 | 30.56° C | 77% | 1011.2 hPa | - | - | - | - |
| 1777427965 | 30.56° C | 78% | 1011.1 hPa | - | - | - | - |
| 1777414765 | 29.44° C | 76% | 1008.7 hPa | - | - | - | - |
| 1777409965 | 29.44° C | 75% | 1008 hPa | - | - | - | - |
| 1777408765 | 29.44° C | 75% | 1007.9 hPa | - | - | - | - |
| 1777407564 | 30° C | 76% | 1007.9 hPa | - | - | - | - |
| 1777406364 | 30° C | 76% | 1008.1 hPa | - | - | - | - |
| 1777403964 | 30° C | 75% | 1008.1 hPa | - | - | - | - |
| 1777399164 | 30° C | 75% | 1008.7 hPa | - | - | - | - |
| 1777396764 | 30° C | 75% | 1009 hPa | - | - | - | - |
| 1777395564 | 30° C | 75% | 1009.5 hPa | - | - | - | - |
| 1777394364 | 30.56° C | 75% | 1009.7 hPa | - | - | - | - |
| 1777393164 | 30.56° C | 75% | 1010.1 hPa | - | - | - | - |
| 1777389563 | 30.56° C | 74% | 1009.9 hPa | - | - | - | - |
| 1777388363 | 30.56° C | 75% | 1009.8 hPa | - | - | - | - |
* Rain since midnight (hover to see other rain measurements)
** Current wind speed in m/s (hover to see current wind gust speed)